QPF
0.00 0.00 0.00 0.01 0.00 0.00 0.00 0.01 0.00 0.00 0.00 0.00 0.00 0.00 0.00 0.00 0.00 0.00 0.00 0.00 0.00 0.00 0.00 0.00 0.00 0.00 0.00 0.00 0.00 0.00 0.00 0.00 0.00 0.00 0.01 0.00 0.00 0.01 0.01 0.03 0.04 0.08 0.10
0.00 0.00 0.00 0.00 0.00 0.00 0.00 0.00 0.00 0.00 0.00 0.00 0.00 0.00 0.00 0.00 0.00 0.00 0.00 0.00 0.00 0.00 0.00 0.00 0.00 0.00 0.00 0.00 0.00 0.00 0.00 0.00 0.00 0.00 0.00 0.00 0.00 0.00 0.00 0.00 0.00 0.00 0.00
0.00 0.00 0.00 0.00 0.00 0.00 0.00 0.00 0.00 0.00 0.00 0.00 0.00 0.00 0.00 0.00 0.00 0.00 0.00 0.00 0.00 0.00 0.00 0.00 0.00 0.00 0.00 0.00 0.00 0.00 0.00 0.00 0.00 0.00 0.00 0.00 0.00 0.00 0.00 0.00 0.00 0.00 0.00
0.00 0.00 0.00 0.00 0.00 0.00 0.00 0.00 0.00 0.00 0.00 0.00 0.00 0.00 0.00 0.00 0.00 0.00 0.00 0.00 0.00 0.00 0.00 0.00 0.00 0.00 0.00 0.00 0.00 0.00 0.00 0.00 0.00 0.00 0.00 0.00 0.00 0.00 0.00 0.00 0.00 0.00 0.00
0.00 0.00 0.00 0.00 0.00 0.00 0.00 0.00 0.00 0.00 0.00 0.00 0.00 0.00 0.00 0.00 0.00 0.00 0.00 0.00 0.00 0.00 0.00 0.00 0.00 0.00 0.00 0.00 0.00 0.00 0.00 0.00 0.00 0.00 0.00 0.00 0.00 0.00 0.00 0.00 0.00 0.00 0.00
0.00 0.00 0.00 0.00 0.00 0.00 0.00 0.00 0.00 0.00 0.00 0.00 0.00 0.00 0.00 0.00 0.00 0.00 0.00 0.00 0.00 0.00 0.00 0.00 0.00 0.00 0.00 0.00 0.00 0.00 0.00 0.00 0.00 0.00 0.00 0.00 0.00 0.00 0.00 0.00 0.00 0.00 0.00
0.00 0.00 0.00 0.00 0.00 0.00 0.00 0.00 0.01 0.01 0.00 0.02 0.06 0.00 0.00 0.00 0.00 0.00 0.00 0.00 0.00 0.00 0.00 0.00 0.00 0.00 0.00 0.00 0.00 0.00 0.00 0.00 0.00 0.00 0.00 0.00 0.00 0.00 0.00 0.00 0.00 0.00 0.00
0.00 0.00 0.00 0.00 0.00 0.00 0.00 0.00 0.00 0.01 0.02 0.04 0.08 0.04 0.00 0.00 0.00 0.00 0.00 0.00 0.00 0.00 0.00 0.00 0.00 0.00 0.00 0.00 0.00 0.00 0.00 0.00 0.00 0.00 0.00 0.00 0.00 0.00 0.00 0.00 0.00 0.00 0.00
0.00 0.00 0.00 0.00 0.00 0.00 0.00 0.00 0.00 0.00 0.00 0.00 0.03 0.04 0.01 0.00 0.00 0.00 0.00 0.00 0.00 0.00 0.00 0.00 0.00 0.00 0.00 0.00 0.00 0.00 0.00 0.00 0.00 0.00 0.00 0.00 0.00 0.00 0.00 0.00 0.00 0.00 0.00
0.00 0.00 0.00 0.00 0.00 0.00 0.00 0.00 0.00 0.00 0.00 0.00 0.00 0.00 0.00 0.00 0.00 0.00 0.00 0.00 0.00 0.00 0.00 0.00 0.00 0.00 0.00 0.00 0.00 0.00 0.00 0.00 0.00 0.00 0.00 0.00 0.00 0.00 0.00 0.00 0.00 0.00 0.00
0.00 0.00 0.00 0.00 0.00 0.00 0.00 0.00 0.00 0.00 0.00 0.01 0.02 0.00 0.00 0.00 0.00 0.00 0.00 0.00 0.00 0.00 0.00 0.00 0.00 0.00 0.00 0.00 0.00 0.00 0.00 0.00 0.00 0.00 0.00 0.00 0.00 0.00 0.00 0.00 0.00 0.00 0.00
0.00 0.00 0.00 0.02 0.01 0.06 0.13 0.03 0.00 0.00 0.00 0.00 0.02 0.05 0.04 0.01 0.00 0.00 0.00 0.00 0.00 0.00 0.00 0.00 0.00 0.00 0.00 0.00 0.00 0.00 0.00 0.00 0.00 0.00 0.00 0.00 0.00 0.00 0.00 0.00 0.00 0.00 0.00
0.04 0.00 0.01 0.11 0.07 0.04 0.09 0.04 0.02 0.05 0.09 0.04 0.00 0.01 0.02 0.01 0.02 0.01 0.00 0.00 0.00 0.00 0.00 0.00 0.00 0.00 0.00 0.00 0.00 0.00 0.00 0.00 0.00 0.00 0.00 0.00 0.00 0.00 0.00 0.00 0.00 0.00 0.00
0.02 0.03 0.05 0.05 0.06 0.03 0.07 0.05 0.02 0.06 0.10 0.05 0.02 0.02 0.02 0.01 0.02 0.01 0.01 0.00 0.00 0.00 0.00 0.00 0.00 0.00 0.00 0.00 0.00 0.00 0.00 0.00 0.00 0.00 0.00 0.00 0.00 0.00 0.00 0.00 0.00 0.00 0.00
0.05 0.04 0.02 0.01 0.01 0.01 0.02 0.02 0.01 0.03 0.04 0.03 0.03 0.03 0.01 0.01 0.06 0.07 0.04 0.01 0.00 0.00 0.00 0.00 0.00 0.00 0.00 0.00 0.00 0.00 0.00 0.00 0.00 0.00 0.00 0.00 0.00 0.00 0.00 0.00 0.00 0.00 0.00
0.00 0.00 0.00 0.00 0.00 0.00 0.00 0.00 0.01 0.02 0.05 0.06 0.08 0.04 0.01 0.01 0.04 0.10 0.07 0.03 0.00 0.00 0.00 0.00 0.00 0.00 0.00 0.00 0.00 0.00 0.00 0.00 0.00 0.00 0.00 0.00 0.00 0.00 0.00 0.00 0.00 0.00 0.00
0.00 0.00 0.00 0.00 0.00 0.00 0.00 0.00 0.00 0.00 0.00 0.01 0.02 0.01 0.01 0.01 0.03 0.07 0.07 0.04 0.01 0.00 0.00 0.00 0.00 0.00 0.00 0.00 0.00 0.00 0.00 0.00 0.00 0.00 0.00 0.00 0.00 0.00 0.00 0.00 0.00 0.00 0.00
0.00 0.00 0.00 0.00 0.00 0.00 0.00 0.00 0.00 0.00 0.00 0.00 0.00 0.00 0.00 0.01 0.03 0.05 0.04 0.02 0.00 0.00 0.00 0.00 0.00 0.00 0.00 0.00 0.00 0.00 0.00 0.00 0.00 0.00 0.00 0.00 0.00 0.00 0.00 0.00 0.00 0.00 0.00
0.00 0.00 0.00 0.00 0.00 0.00 0.00 0.00 0.00 0.00 0.00 0.00 0.00 0.00 0.00 0.00 0.01 0.02 0.02 0.00 0.01 0.00 0.00 0.00 0.00 0.00 0.00 0.00 0.00 0.00 0.00 0.00 0.00 0.00 0.00 0.00 0.00 0.00 0.00 0.00 0.00 0.00 0.00
0.00 0.00 0.00 0.00 0.00 0.00 0.00 0.00 0.00 0.00 0.00 0.00 0.00 0.00 0.00 0.00 0.00 0.00 0.00 0.00 0.01 0.00 0.00 0.00 0.00 0.00 0.00 0.00 0.00 0.00 0.00 0.00 0.00 0.00 0.00 0.00 0.00 0.00 0.00 0.00 0.00 0.00 0.00
0.00 0.00 0.00 0.00 0.00 0.00 0.00 0.00 0.00 0.00 0.00 0.00 0.00 0.00 0.00 0.00 0.00 0.01 0.01 0.00 0.00 0.00 0.00 0.00 0.00 0.00 0.00 0.00 0.00 0.00 0.00 0.00 0.00 0.00 0.00 0.00 0.00 0.00 0.00 0.00 0.00 0.00 0.00
0.00 0.00 0.00 0.00 0.00 0.00 0.00 0.00 0.00 0.00 0.00 0.00 0.00 0.00 0.00 0.00 0.00 0.00 0.00 0.01 0.01 0.00 0.00 0.00 0.00 0.00 0.00 0.00 0.00 0.00 0.00 0.00 0.00 0.00 0.00 0.00 0.00 0.00 0.00 0.00 0.00 0.00 0.00
0.00 0.00 0.00 0.00 0.00 0.00 0.00 0.00 0.00 0.00 0.01 0.04 0.05 0.02 0.01 0.00 0.00 0.00 0.00 0.00 0.00 0.00 0.00 0.00 0.00 0.00 0.00 0.00 0.00 0.00 0.00 0.00 0.00 0.00 0.00 0.00 0.00 0.00 0.00 0.00 0.00 0.00 0.00
0.01 0.00 0.00 0.00 0.00 0.00 0.00 0.00 0.00 0.00 0.01 0.02 0.03 0.01 0.01 0.02 0.01 0.00 0.00 0.00 0.00 0.00 0.00 0.00 0.00 0.00 0.00 0.00 0.00 0.00 0.00 0.00 0.00 0.00 0.00 0.00 0.00 0.00 0.00 0.00 0.00 0.00 0.00
0.05 0.03 0.01 0.00 0.00 0.00 0.00 0.00 0.00 0.00 0.00 0.00 0.00 0.00 0.01 0.01 0.00 0.00 0.00 0.00 0.00 0.00 0.00 0.00 0.00 0.00 0.00 0.00 0.00 0.00 0.00 0.00 0.00 0.00 0.00 0.00 0.00 0.00 0.00 0.00 0.00 0.00 0.00
0.10 0.09 0.09 0.03 0.00 0.01 0.01 0.00 0.00 0.00 0.00 0.00 0.00 0.00 0.00 0.00 0.00 0.00 0.00 0.00 0.00 0.00 0.00 0.00 0.00 0.00 0.00 0.00 0.00 0.00 0.00 0.00 0.00 0.00 0.00 0.00 0.00 0.00 0.00 0.00 0.00 0.00 0.00
MSLP
1013.87 1014.15 1014.37 1014.81 1015.31 1015.19 1015.40 1015.39 1015.57 1015.73 1015.72 1015.71 1016.02 1016.14 1016.25 1016.25 1016.19 1016.17 1016.12 1015.99 1015.89 1015.75 1015.52 1015.27 1015.09 1015.02 1015.07 1015.11 1015.14 1015.39 1016.03 1016.65 1018.01 1019.29 1019.67 1019.96 1020.15 1020.23 1020.47 1020.56 1020.70 1020.78 1020.85
1013.92 1014.24 1014.51 1014.71 1015.22 1015.21 1015.37 1015.39 1015.48 1015.81 1015.91 1016.10 1016.33 1016.51 1016.63 1016.74 1016.79 1016.58 1016.57 1016.49 1016.48 1016.43 1016.31 1015.93 1015.87 1015.61 1015.69 1015.73 1015.81 1016.19 1016.57 1016.97 1017.68 1018.97 1019.87 1020.28 1020.63 1020.87 1020.95 1021.06 1021.24 1021.31 1021.37
1013.95 1014.33 1014.63 1014.91 1015.27 1015.49 1015.61 1015.65 1015.75 1015.83 1016.13 1016.32 1016.54 1016.80 1016.91 1017.06 1017.11 1017.06 1017.04 1017.00 1017.05 1016.99 1016.91 1016.74 1016.50 1016.33 1016.51 1016.68 1016.74 1017.08 1017.32 1017.54 1018.20 1018.94 1019.92 1020.53 1021.01 1021.30 1021.49 1021.62 1021.77 1021.74 1021.72
1013.61 1014.08 1014.46 1014.85 1014.97 1015.19 1015.32 1015.63 1015.91 1016.05 1016.18 1016.31 1016.66 1016.91 1016.97 1017.07 1017.21 1017.38 1017.43 1017.53 1017.37 1017.39 1017.29 1017.22 1017.07 1016.94 1016.99 1017.30 1017.41 1017.77 1018.10 1018.27 1018.86 1019.49 1020.15 1020.74 1021.11 1021.53 1021.67 1021.90 1022.02 1022.15 1022.25
1013.07 1013.60 1014.24 1014.47 1014.72 1015.02 1015.29 1015.30 1015.42 1015.93 1016.08 1016.46 1016.67 1016.92 1017.09 1017.18 1017.43 1017.53 1017.67 1017.84 1017.86 1017.87 1017.86 1017.84 1017.69 1017.51 1017.45 1017.61 1017.81 1018.25 1018.54 1018.80 1019.37 1019.89 1020.40 1020.95 1021.21 1021.44 1021.56 1021.78 1022.03 1022.24 1022.46
1012.86 1013.07 1013.73 1014.35 1014.65 1015.14 1015.35 1015.95 1016.13 1015.76 1015.87 1016.34 1016.67 1017.06 1017.36 1017.53 1017.51 1017.58 1017.62 1017.86 1018.03 1018.21 1018.40 1018.28 1018.16 1018.04 1017.98 1018.13 1018.20 1018.35 1018.59 1018.98 1019.53 1019.93 1020.38 1020.72 1021.17 1021.23 1021.40 1021.65 1021.93 1022.23 1022.45
1012.75 1013.02 1013.43 1013.99 1014.62 1015.04 1015.43 1015.88 1016.07 1016.01 1015.89 1016.31 1016.85 1017.09 1017.48 1017.68 1017.74 1017.68 1017.91 1018.11 1018.37 1018.48 1018.59 1018.57 1018.59 1018.60 1018.46 1018.67 1018.69 1018.76 1018.90 1019.14 1019.33 1019.64 1020.22 1020.53 1020.80 1020.92 1021.10 1021.47 1021.71 1021.87 1021.85
1012.35 1012.78 1013.27 1013.97 1014.57 1014.94 1015.37 1015.77 1016.04 1016.05 1016.13 1016.60 1016.79 1017.19 1017.34 1017.61 1017.80 1017.78 1017.97 1018.21 1018.54 1018.69 1018.78 1018.87 1018.91 1018.99 1019.02 1019.01 1019.08 1019.29 1019.48 1019.53 1019.47 1019.54 1019.77 1020.07 1020.21 1020.44 1020.66 1020.81 1021.17 1021.60 1021.85
1012.21 1012.47 1012.91 1013.75 1014.34 1014.80 1015.23 1015.53 1015.77 1016.06 1016.21 1016.50 1016.80 1017.11 1017.31 1017.73 1017.66 1017.89 1018.13 1018.43 1018.68 1018.92 1019.04 1019.14 1019.19 1019.17 1019.15 1019.19 1019.27 1019.77 1019.97 1019.95 1019.78 1019.77 1019.91 1019.97 1020.05 1020.14 1020.32 1020.84 1021.44 1021.77 1022.14
1011.99 1012.11 1012.74 1013.46 1013.94 1014.47 1014.93 1015.36 1015.56 1015.76 1016.04 1016.52 1016.81 1016.99 1017.06 1017.28 1017.55 1017.76 1018.15 1018.53 1019.01 1019.22 1019.31 1019.37 1019.37 1019.32 1019.38 1019.41 1019.53 1019.93 1020.27 1020.41 1020.29 1020.29 1020.42 1020.55 1020.43 1020.38 1020.40 1020.56 1021.20 1021.79 1022.06
1011.80 1011.98 1012.71 1013.39 1013.70 1013.81 1014.52 1014.95 1015.27 1015.61 1015.95 1016.25 1016.56 1016.82 1016.95 1017.12 1017.49 1017.59 1017.85 1018.17 1018.61 1019.09 1019.37 1019.43 1019.46 1019.51 1019.47 1019.52 1019.59 1019.85 1020.18 1020.28 1020.59 1020.69 1020.87 1020.97 1020.98 1020.90 1020.98 1021.09 1021.08 1021.20 1021.54
1011.59 1011.77 1012.26 1012.98 1013.60 1013.60 1014.18 1014.52 1014.88 1015.32 1015.73 1016.11 1016.46 1016.70 1016.84 1017.09 1017.32 1017.57 1017.69 1017.80 1018.11 1018.63 1019.04 1019.15 1019.18 1019.33 1019.39 1019.37 1019.53 1019.76 1020.01 1020.16 1020.44 1020.89 1021.17 1021.44 1021.39 1021.27 1021.16 1021.30 1021.23 1021.08 1021.16
1011.57 1011.92 1012.23 1012.63 1013.13 1013.35 1013.97 1014.33 1014.75 1015.17 1015.52 1015.89 1016.02 1016.26 1016.51 1016.84 1017.13 1017.37 1017.56 1017.59 1017.81 1018.25 1018.43 1018.65 1018.93 1019.13 1019.31 1019.39 1019.54 1019.68 1019.73 1019.88 1020.26 1020.75 1021.11 1021.33 1021.16 1020.92 1021.01 1021.23 1021.21 1021.13 1021.23
1012.10 1012.30 1012.60 1013.11 1013.58 1013.75 1013.95 1014.32 1014.58 1014.90 1015.36 1015.83 1015.86 1015.85 1015.89 1016.27 1016.60 1017.00 1017.40 1017.47 1017.66 1017.94 1018.24 1018.47 1018.71 1018.90 1019.18 1019.34 1019.49 1019.56 1019.58 1019.71 1019.90 1020.38 1020.81 1020.91 1021.05 1021.12 1021.25 1021.22 1021.29 1021.35 1021.52
1012.42 1012.49 1012.86 1013.31 1013.61 1014.00 1014.71 1014.92 1014.98 1015.03 1015.11 1015.26 1015.15 1015.04 1015.43 1015.64 1015.73 1016.29 1016.86 1017.19 1017.35 1017.61 1018.20 1018.61 1018.94 1019.13 1019.31 1019.40 1019.47 1019.58 1019.68 1019.80 1020.07 1020.28 1020.59 1020.81 1020.87 1020.99 1021.13 1021.25 1021.40 1021.64 1021.75
1012.73 1012.75 1012.81 1013.29 1013.88 1014.25 1014.69 1015.05 1015.14 1015.13 1015.13 1015.19 1015.09 1014.88 1014.78 1014.80 1015.13 1015.65 1016.14 1016.67 1016.99 1017.57 1018.13 1018.39 1018.61 1018.79 1019.08 1019.21 1019.43 1019.63 1019.78 1019.82 1019.92 1020.03 1020.28 1020.50 1020.87 1021.07 1021.22 1021.18 1021.26 1021.51 1021.63
1013.12 1013.01 1012.90 1013.22 1013.74 1014.25 1014.54 1014.79 1015.00 1014.95 1015.07 1015.08 1015.05 1014.87 1014.83 1014.79 1014.92 1015.22 1015.64 1016.34 1016.76 1017.23 1017.54 1017.83 1018.10 1018.38 1018.57 1018.85 1019.14 1019.43 1019.48 1019.36 1019.32 1019.67 1019.97 1020.26 1020.51 1020.74 1020.91 1021.09 1021.23 1021.34 1021.48
1013.10 1012.89 1013.00 1013.18 1013.55 1013.85 1014.05 1014.27 1014.55 1014.79 1014.89 1014.94 1014.98 1015.01 1014.88 1014.87 1014.91 1015.11 1015.59 1016.32 1017.04 1017.09 1017.06 1017.22 1017.55 1017.72 1018.07 1018.37 1018.51 1018.74 1018.81 1018.96 1019.37 1019.29 1019.55 1019.85 1020.12 1020.33 1020.53 1020.64 1020.73 1020.93 1021.07
1013.09 1012.71 1012.67 1012.73 1013.07 1013.40 1013.73 1014.00 1014.10 1014.38 1014.62 1014.71 1014.99 1015.20 1015.20 1015.13 1015.17 1015.23 1015.44 1015.57 1016.11 1016.36 1016.54 1016.70 1016.82 1017.17 1017.41 1017.52 1017.62 1017.69 1017.75 1018.13 1018.52 1018.79 1018.98 1019.26 1019.51 1019.81 1019.96 1020.07 1020.21 1020.44 1020.56
1012.79 1012.48 1012.25 1012.30 1012.76 1013.23 1013.53 1013.64 1013.68 1013.86 1014.15 1014.26 1014.50 1014.74 1015.15 1015.37 1015.18 1015.25 1015.38 1015.45 1015.52 1015.64 1015.83 1016.05 1016.14 1016.33 1016.50 1016.66 1016.67 1016.69 1016.98 1017.21 1017.74 1018.03 1018.28 1018.53 1018.72 1019.07 1019.34 1019.39 1019.54 1019.78 1019.96
1012.43 1012.20 1011.89 1012.13 1012.65 1012.92 1013.05 1013.05 1013.01 1013.24 1013.47 1013.60 1013.66 1013.79 1014.18 1014.59 1014.72 1014.77 1014.70 1014.81 1014.89 1015.01 1015.05 1015.23 1015.33 1015.43 1015.59 1015.68 1015.83 1015.99 1016.25 1016.16 1016.69 1017.01 1017.47 1017.68 1017.93 1018.54 1018.43 1018.65 1018.77 1019.00 1019.25
1011.98 1011.74 1011.68 1011.98 1012.31 1012.61 1012.66 1012.57 1012.51 1012.59 1012.73 1012.81 1012.97 1013.26 1013.60 1013.87 1013.86 1013.87 1013.82 1013.85 1013.87 1013.92 1014.01 1014.16 1014.35 1014.46 1014.47 1014.57 1014.73 1014.95 1015.22 1015.21 1015.67 1016.04 1016.41 1016.76 1017.13 1017.33 1017.56 1017.90 1018.33 1018.55 1018.74
1011.39 1011.25 1011.44 1011.77 1011.88 1012.01 1012.16 1012.08 1011.86 1011.66 1011.71 1011.86 1012.12 1012.48 1012.93 1013.01 1012.97 1012.97 1012.94 1012.95 1013.09 1013.07 1013.06 1013.26 1013.42 1013.48 1013.23 1013.27 1013.39 1013.49 1014.01 1014.07 1014.29 1014.73 1015.38 1015.83 1016.25 1016.59 1016.89 1017.34 1017.49 1018.12 1018.29
1010.75 1010.94 1011.27 1011.56 1011.71 1011.64 1011.68 1011.61 1011.21 1010.87 1010.95 1011.13 1011.29 1011.42 1011.67 1011.88 1012.10 1012.46 1012.66 1012.73 1012.68 1012.49 1012.23 1012.13 1012.19 1012.22 1012.16 1012.18 1012.09 1012.09 1012.43 1012.57 1013.01 1013.42 1014.03 1014.78 1015.49 1016.15 1016.65 1016.71 1016.99 1017.51 1017.78
1010.25 1010.69 1011.00 1011.41 1011.60 1011.60 1011.57 1011.34 1011.13 1010.88 1010.81 1010.77 1010.64 1010.69 1010.99 1011.31 1011.67 1011.82 1011.79 1011.97 1012.13 1011.93 1011.66 1011.45 1011.28 1011.20 1011.05 1010.82 1010.93 1011.41 1011.92 1012.39 1012.47 1012.71 1013.18 1014.07 1014.71 1015.35 1015.92 1016.59 1016.91 1017.28 1017.38
1010.25 1010.57 1011.13 1011.39 1011.50 1011.57 1011.63 1011.61 1011.54 1011.45 1011.51 1011.41 1011.27 1011.29 1011.28 1011.38 1011.74 1011.90 1012.21 1012.50 1012.25 1012.06 1011.97 1011.39 1011.17 1010.57 1010.83 1011.31 1010.75 1011.55 1012.17 1012.52 1012.79 1013.54 1014.25 1014.26 1014.41 1015.24 1016.03 1016.55 1016.35 1016.59 1016.82
Thickness
5759 5750 5743 5736 5725 5718 5713 5714 5714 5716 5721 5723 5720 5718 5717 5719 5721 5722 5725 5728 5730 5732 5734 5736 5737 5737 5734 5733 5732 5731 5724 5718 5704 5694 5691 5687 5686 5685 5682 5679 5677 5676 5675
5756 5748 5741 5735 5729 5724 5720 5719 5720 5719 5720 5717 5715 5714 5713 5713 5714 5717 5719 5722 5723 5724 5726 5728 5727 5729 5727 5726 5725 5721 5717 5714 5708 5696 5688 5684 5680 5677 5675 5673 5671 5670 5669
5754 5745 5739 5733 5728 5724 5722 5721 5718 5718 5714 5713 5711 5709 5708 5708 5709 5711 5712 5714 5715 5717 5718 5719 5721 5721 5718 5715 5715 5711 5708 5706 5700 5694 5685 5680 5675 5672 5669 5667 5665 5665 5663
5755 5746 5738 5733 5730 5725 5722 5717 5715 5713 5710 5709 5707 5705 5705 5705 5706 5706 5706 5706 5708 5709 5711 5711 5712 5712 5711 5707 5706 5702 5698 5697 5692 5686 5680 5675 5672 5667 5665 5663 5660 5658 5656
5756 5748 5738 5735 5730 5725 5719 5717 5716 5710 5708 5704 5703 5702 5701 5701 5700 5701 5700 5699 5699 5700 5701 5701 5703 5705 5705 5702 5699 5695 5691 5688 5683 5679 5674 5669 5667 5664 5662 5658 5655 5651 5649
5755 5750 5741 5733 5729 5723 5717 5708 5704 5706 5706 5701 5698 5696 5695 5695 5695 5696 5697 5695 5694 5693 5692 5693 5694 5695 5695 5693 5692 5690 5687 5682 5678 5675 5671 5667 5661 5660 5658 5655 5650 5647 5643
5753 5749 5743 5734 5726 5720 5714 5707 5702 5699 5701 5698 5693 5692 5690 5690 5690 5692 5691 5690 5686 5686 5685 5685 5686 5685 5686 5683 5684 5683 5681 5678 5674 5671 5665 5662 5658 5657 5655 5650 5647 5643 5642
5752 5747 5741 5730 5723 5718 5711 5706 5701 5698 5695 5691 5691 5688 5687 5686 5685 5686 5686 5684 5681 5679 5678 5678 5678 5676 5675 5674 5674 5672 5670 5670 5669 5667 5664 5661 5658 5655 5651 5649 5643 5637 5632
5749 5745 5741 5731 5721 5717 5710 5706 5702 5698 5695 5690 5687 5684 5683 5680 5682 5680 5679 5677 5675 5673 5671 5670 5669 5669 5670 5669 5667 5664 5661 5660 5661 5660 5657 5654 5652 5650 5646 5640 5633 5628 5621
5745 5744 5738 5729 5722 5715 5712 5707 5702 5698 5694 5688 5685 5683 5681 5679 5677 5675 5673 5671 5667 5666 5665 5663 5663 5662 5663 5662 5661 5658 5654 5652 5651 5649 5646 5643 5642 5641 5637 5633 5625 5616 5610
5744 5741 5732 5725 5720 5718 5711 5707 5703 5697 5693 5688 5683 5681 5680 5678 5674 5674 5671 5669 5666 5663 5660 5659 5658 5657 5658 5657 5656 5652 5649 5647 5643 5639 5635 5632 5631 5629 5625 5621 5617 5611 5602
5741 5738 5731 5724 5717 5716 5708 5705 5702 5697 5691 5687 5682 5678 5677 5675 5672 5671 5671 5669 5664 5661 5658 5656 5656 5654 5653 5652 5649 5647 5644 5642 5636 5630 5626 5621 5618 5615 5614 5609 5605 5602 5599
5737 5730 5727 5722 5715 5713 5705 5700 5696 5692 5688 5684 5681 5679 5675 5672 5670 5667 5666 5666 5663 5658 5656 5654 5651 5649 5647 5645 5643 5640 5638 5634 5629 5622 5616 5611 5609 5609 5603 5598 5595 5593 5589
5723 5719 5717 5710 5705 5703 5700 5697 5694 5689 5684 5679 5677 5675 5674 5671 5669 5665 5661 5662 5659 5655 5651 5647 5645 5643 5640 5637 5635 5633 5631 5627 5623 5616 5610 5605 5601 5598 5594 5590 5586 5581 5577
5712 5710 5708 5703 5699 5694 5687 5685 5683 5681 5678 5679 5677 5675 5670 5669 5668 5663 5658 5656 5655 5651 5643 5638 5634 5632 5630 5628 5625 5623 5620 5617 5613 5608 5603 5598 5594 5589 5585 5580 5576 5571 5567
5702 5702 5701 5695 5687 5683 5681 5677 5672 5672 5670 5668 5666 5668 5669 5668 5664 5659 5654 5650 5647 5641 5636 5632 5629 5627 5622 5620 5616 5613 5610 5608 5604 5600 5595 5590 5584 5579 5574 5571 5567 5564 5561
5690 5691 5690 5686 5681 5676 5674 5672 5670 5668 5663 5662 5661 5661 5661 5661 5658 5654 5650 5643 5638 5634 5631 5627 5625 5621 5618 5614 5609 5604 5602 5599 5598 5590 5585 5580 5575 5570 5567 5563 5560 5557 5554
5682 5684 5682 5679 5676 5673 5670 5667 5663 5662 5661 5660 5655 5653 5654 5652 5651 5648 5642 5635 5628 5627 5626 5623 5621 5616 5611 5608 5604 5599 5595 5591 5584 5582 5578 5573 5568 5563 5560 5558 5555 5551 5547
5672 5677 5676 5675 5672 5668 5664 5660 5657 5655 5653 5652 5647 5644 5642 5640 5639 5637 5633 5636 5629 5625 5620 5616 5614 5609 5605 5603 5599 5595 5593 5587 5581 5576 5573 5568 5562 5558 5555 5553 5550 5546 5542
5665 5670 5671 5669 5664 5659 5655 5653 5652 5649 5646 5646 5643 5640 5633 5629 5631 5628 5624 5623 5622 5619 5613 5610 5607 5604 5600 5597 5594 5591 5588 5584 5577 5571 5567 5563 5559 5554 5551 5550 5545 5541 5536
5657 5660 5663 5659 5654 5651 5650 5648 5648 5645 5642 5640 5638 5635 5629 5625 5623 5620 5617 5615 5613 5610 5606 5603 5600 5597 5594 5591 5587 5584 5581 5581 5574 5569 5563 5558 5554 5548 5547 5543 5540 5536 5532
5649 5652 5652 5648 5646 5642 5641 5641 5639 5636 5634 5633 5629 5626 5618 5616 5616 5614 5612 5610 5608 5604 5602 5599 5595 5592 5590 5587 5584 5580 5577 5575 5569 5565 5559 5555 5551 5548 5544 5538 5532 5529 5526
5644 5645 5644 5640 5637 5634 5631 5631 5633 5633 5631 5627 5625 5620 5610 5608 5607 5606 5604 5603 5600 5598 5596 5592 5589 5587 5587 5585 5582 5580 5574 5570 5567 5562 5556 5550 5545 5542 5537 5532 5530 5522 5518
5639 5637 5634 5630 5628 5625 5623 5621 5623 5624 5624 5621 5617 5615 5609 5603 5600 5595 5592 5589 5589 5587 5585 5585 5584 5583 5583 5580 5579 5577 5573 5570 5565 5559 5553 5545 5539 5533 5528 5526 5521 5514 5509
5631 5627 5624 5620 5617 5615 5612 5610 5610 5611 5609 5607 5608 5606 5599 5594 5589 5586 5585 5582 5577 5575 5576 5577 5578 5578 5578 5578 5576 5571 5566 5560 5557 5552 5547 5538 5532 5525 5519 5511 5506 5500 5498
5620 5617 5611 5605 5602 5599 5597 5595 5595 5594 5592 5589 5587 5584 5583 5581 5576 5574 5569 5565 5565 5564 5561 5565 5567 5569 5567 5562 5565 5558 5551 5546 5541 5532 5524 5523 5520 5511 5502 5496 5496 5492 5488